Find Starlink 35870

NORAD ID: 66572 Int'l Des: 2025-268 Owner: SPXS Country: US Constellation: starlink operational
LEOCIRCULAR

Live Position

Loading 3D Globe...

About Starlink 35870

Description loading...

Upcoming Passes

Passes for default location (London). Set your location on the main map for personalized predictions.

Altitude History

Loading altitude history...

Two-Line Element Set

1 66572U 25268R 26106.13921720 .00009919 00000-0 36958-3 0 9991
2 66572 43.0032 135.8779 0001576 269.0743 90.9928 15.27570030 23686
Epoch: Apr 16, 2026 • Age: 14 hours

Current Status

Altitude 491.0 km
Velocity 7.62 km/s
Sub-Earth Point -31.96°S, 12.62°W
Launch Date Nov 21, 2025
Age 0.3 years
Type internet

Technical Details

Classification Payload
Mass 575.00 kg
Dry Mass 530.00 kg
Total Mass 575.00 kg
Length 0.30 m
Diameter 4.10 m
Span 29.00 m
Shape Box + pan
Manufacturer SPXS
Bus Type Starlink V2MO
Phase Status In Orbit
Owner/State SPXS/US

Most Searched